Location: ??
(35.4627°N, 139.3695°E)
Time: 15:17:49
(UTC+00:00)

USA 238 - Pass Details

Date: 25 November 2020
Orbit: 997 x 1215 km, 63.4° (Epoch: 11 January)

Event Time Altitude Azimuth Distance (km) Brightness Sun altitude
Exits shadow 20:08:34 16° 317° (NW) 2,626 5.2 -16.1°
Maximum altitude 20:14:24 56° 245° (WSW) 1,395 4.0 -15.0°
Drops below altitude 10° 20:21:46 10° 169° (S) 3,147 6.5 -13.5°
Sets 20:24:36 0° 165° (SSE) 4,114 7.2 -13.0°
